Regional Weather Roundup
Issued by NWS Midland/Odessa, TX

Skip options and go directly to product.
Home | Oldest Version | Previous Version | Current Version | All | Text Only | Save Text | Print | Product List | Glossary On

Skip product version selection by date and time.   
582
ASUS44 KMAF 210810
RWRMAF
MIDLAND AREA WEATHER ROUNDUP
NATIONAL WEATHER SERVICE MIDLAND TX
300 AM CDT TUE OCT 21 2014

...IN SOUTHWEST TEXAS AND SOUTHEAST NEW MEXICO...

CITY           SKY/WX    TMP DP  RH WIND       PRES   REMARKS
ALPINE         CLOUDY    59  55  88 CALM      30.17R
ANDREWS        FAIR      56  51  81 CALM      30.10S
ARTESIA        NOT AVBL
BIG SPRING     PTCLDY    61  53  73 E7        30.10F
CARLSBAD       CLOUDY    60  58  92 NW6       30.09S
DRYDEN           N/A     64  62  93 NE7       30.03R
FORT STOCKTON  MOCLDY    62  58  86 SE9       30.06S
GUAD PASS      CLOUDY    55  54  96 NE15      30.17S FOG
HOBBS          PTCLDY    57  57 100 N6        30.12S
MARFA          CLOUDY    57  55  94 S3        30.16R
MIDLAND AIRPK  PTCLDY    63  53  69 S3        30.09S
MIDLAND INTL   PTCLDY    61  51  70 SE3       30.08S
ODESSA         PTCLDY    61  51  70 SE5       30.09S
PECOS          CLOUDY    63  61  94 CALM      30.06S
PRESIDIO       CLOUDY    67  59  75 N8        30.03S
SEMINOLE       PTCLDY    57  51  79 CALM      30.11S
SNYDER         CLEAR     60  53  77 S5        30.09S
WINK           PTCLDY    61  59  93 E3        30.06S
$$
...OTHER STATIONS IN TEXAS...

CITY           SKY/WX    TMP DP  RH WIND       PRES   REMARKS
ABILENE        CLEAR     63  55  75 S7        30.08R
AMARILLO       CLEAR     56  51  84 S8        30.12S
AUSTIN         PTCLDY    57  56  96 CALM      30.03S
BROWNSVILLE    CLEAR     74  69  85 NE3       29.91F
CORPUS CHRISTI PTCLDY    73  70  90 NE8       29.95F
DALLAS FTW     CLEAR     63  58  83 CALM      30.04S
DEL RIO        CLOUDY    70  61  73 E6        30.01R
EL PASO        PTCLDY    61  54  77 NE6       30.08R
HOUSTON INT    MOCLDY    60  56  86 NE3       30.01S
LUBBOCK        PTCLDY    59  51  75 S5        30.11R
SAN ANGELO     CLEAR     57  50  77 CALM      30.07S
SAN ANTONIO    PTCLDY    66  58  75 N3        30.03S
WACO           CLEAR     59  57  93 CALM      30.04S
WICHITA FALLS  NOT AVBL
$$
...OTHER LOCATIONS IN NEW MEXICO...

CITY           SKY/WX    TMP DP  RH WIND       PRES   REMARKS
ALAMAGORDO     NOT AVBL
ALBUQUERQUE    PTCLDY    54  47  77 E10       30.17F
CANNON AFB     PTCLDY    54  51  90 NW3       30.14F
CLOVIS         NOT AVBL
HOLLOMAN AFB   CLEAR     55  55 100 CALM      30.08S
ROSWELL        CLOUDY    59  56  89 CALM      30.12R
RUIDOSO        CLOUDY    46  46 100 SW3       30.24S
SANTA FE       PTCLDY    49  45  86 SE6       30.21F
TRUTH OR CONSE PTCLDY    55  53  93 NW5       30.12S
TUCUMCARI      PTCLDY    52  46  80 W6        30.12S
$$

USA.gov is the U.S. government's official web portal to all federal, state and local government web resources and services.